Location: Casco Volunteer Fire Department
(44.5576°N, 87.6146°W)
Time: 18:19:22
(UTC+00:00)

Meteor 1-12 Rocket - Visible Passes

Search period start: 11 April 2026 00:00
Search period end: 21 April 2026 00:00
Orbit: 855 x 924 km, 81.2° (Epoch: 11 April)

Date Brightness Start Highest point End Pass type
(mag) Time Alt. Az. Time Alt. Az. Time Alt. Az.
11 Apr 5.0 01:16:34 10° SSE 01:21:49 33° E 01:27:07 10° NNE visible
11 Apr 5.7 02:59:55 10° SW 03:05:27 39° WNW 03:11:04 10° N visible
12 Apr 4.9 01:15:52 10° SSE 01:21:17 38° E 01:26:46 10° NNE visible
12 Apr 5.9 02:59:40 10° SW 03:05:03 34° WNW 03:10:31 10° N visible
13 Apr 4.7 01:15:11 10° SSE 01:20:46 43° E 01:26:25 10° NNE visible
13 Apr 6.1 02:59:27 10° SW 03:04:39 31° WNW 03:09:56 10° N visible
14 Apr 4.6 01:14:32 10° SSE 01:20:15 49° E 01:26:02 10° NNE visible
14 Apr 6.4 02:59:16 10° SW 03:04:17 27° WNW 03:09:19 10° N visible
15 Apr 4.5 01:13:56 10° S 01:19:45 57° E 01:25:38 10° NNE visible
15 Apr 6.6 02:59:09 10° WSW 03:03:54 24° WNW 03:08:42 10° NNW visible
16 Apr 4.4 01:13:21 10° S 01:19:15 65° E 01:25:13 10° NNE visible
16 Apr 6.8 02:59:04 10° WSW 03:03:32 21° WNW 03:08:03 10° NNW visible
17 Apr 4.4 01:12:48 10° S 01:18:46 74° E 01:24:47 10° NNE visible
17 Apr 7.0 02:59:03 10° WSW 03:03:11 19° WNW 03:07:21 10° NNW visible
17 Apr 7.9 10:14:54 10° NE 10:16:25 11° ENE 10:17:55 10° ENE visible
18 Apr 4.4 01:12:18 10° S 01:18:18 84° E 01:24:20 10° NNE visible
18 Apr 7.2 02:59:07 10° W 03:02:50 17° WNW 03:06:36 10° NNW visible
18 Apr 7.7 10:13:39 10° NNE 10:16:06 13° ENE 10:18:32 10° E visible
19 Apr 4.5 01:11:49 10° S 01:17:49 86° W 01:23:53 10° N visible
19 Apr 7.3 02:59:16 10° W 03:02:31 15° WNW 03:05:47 10° NNW visible
19 Apr 7.6 10:12:42 10° NNE 10:15:47 14° ENE 10:18:50 10° E visible
20 Apr 4.7 01:11:22 10° SSW 01:17:21 77° W 01:23:25 10° N visible
20 Apr 7.4 02:59:34 10° W 03:02:12 13° WNW 03:04:50 10° NNW visible
20 Apr 7.5 10:11:52 10° NNE 10:15:27 16° ENE 10:18:59 10° E visible
